Weather History for KRIL - May, 2013

Change the Weather History Date:

Tuesday, May 7, 2013

  Actual Average Record
Temperature  
Mean Temperature 52 °F 54 °F  
Max Temperature 61 °F 70 °F 88 °F (1934)
Min Temperature 42 °F 38 °F 21 °F (1968)
Degree Days  
Heating Degree Days 13 11  
Month to date heating degree days 106 84  
Since 1 July heating degree days 6536 6381  
Cooling Degree Days 0 0  
Month to date cooling degree days 0 0  
Year to date cooling degree days 0 0  
Growing Degree Days 1 (Base 50)    
Moisture  
Dew Point 41 °F    
Average Humidity 69    
Maximum Humidity 100    
Minimum Humidity 37    
Precipitation  
Precipitation 0.19 in 0.04 in 0.99 in (1979)
Month to date precipitation 0.54 0.35  
Year to date precipitation 3.50 4.26  
Sea Level Pressure  
Sea Level Pressure 29.98 in    
Wind  
Wind Speed 3 mph (South)    
Max Wind Speed 23 mph    
Max Gust Speed 29 mph    
Visibility 10 miles    
Events Rain , Thunderstorm    
T = Trace of Precipitation, MM = Missing Value Source: NWS Daily Summary

Daily Weather History Graph

Daily Weather History Graph

Search for Another Location

Airport or City:

Trip Planner

Search our weather history database for the weather conditions in past years. The results will help you decide how hot, cold, wet, or windy it might be!

Date:

Astronomy

May. 07, 2013 Rise Set
Actual Time 6:04 AM MDT 8:10 PM MDT
Civil Twilight 5:34 AM MDT 8:40 PM MDT
Nautical Twilight 4:58 AM MDT 9:17 PM MDT
Astronomical Twilight 4:19 AM MDT 9:56 PM MDT
Moon 4:39 AM MDT 6:13 PM MDT
Length of Visible Light 15h 05m
Length of Day
14h 06m
Waning Crescent, 5% of the Moon is Illuminated
May 7
Waning Crescent
May 9
New
May 17
First Quarter
May 24
Full
May 31
Last Quarter

Hourly Weather History & Observations

Time (MDT) Temp. Windchill Dew Point Humidity Pressure Visibility Wind Dir Wind Speed Gust Speed Precip Events Conditions
12:53 AM 46.9 °F - 44.1 °F 90% 29.95 in 10.0 mi South 3.5 mph - N/A   Overcast
1:53 AM 46.0 °F 44.8 °F 44.1 °F 93% 29.97 in 10.0 mi West 3.5 mph - 0.00 in   Mostly Cloudy
2:30 AM 46.4 °F 45.2 °F 44.6 °F 93% 30.07 in 10.0 mi East 3.5 mph - N/A   Overcast
2:53 AM 46.0 °F - 44.1 °F 93% 29.95 in 10.0 mi Calm Calm - N/A   Mostly Cloudy
3:53 AM 45.0 °F - 41.0 °F 86% 29.97 in 10.0 mi Calm Calm - N/A   Mostly Cloudy
4:53 AM 44.1 °F 41.5 °F 42.1 °F 93% 29.99 in 10.0 mi East 4.6 mph - N/A   Overcast
5:53 AM 43.0 °F - 42.1 °F 97% 30.00 in 10.0 mi Calm Calm - N/A   Mostly Cloudy
6:53 AM 43.0 °F - 42.1 °F 97% 30.02 in 10.0 mi Calm Calm - N/A   Mostly Cloudy
7:53 AM 44.1 °F - 43.0 °F 96% 30.02 in 10.0 mi Calm Calm - N/A   Mostly Cloudy
8:53 AM 48.0 °F - 43.0 °F 83% 30.01 in 10.0 mi Calm Calm - 0.00 in Rain Light Rain
9:53 AM 50.0 °F - 43.0 °F 77% 29.99 in 10.0 mi Calm Calm - 0.00 in   Unknown
10:53 AM 53.1 °F - 41.0 °F 64% 29.96 in 10.0 mi Calm Calm - N/A   Scattered Clouds
11:53 AM 57.0 °F - 34.0 °F 42% 29.92 in 10.0 mi Calm Calm - 0.00 in   Partly Cloudy
12:03 PM 59.0 °F - 35.6 °F 42% 30.01 in 10.0 mi SSE 3.5 mph - N/A Thunderstorm Clear
12:18 PM 57.2 °F - 33.8 °F 41% 30.02 in 10.0 mi Calm Calm - N/A   Partly Cloudy
12:53 PM 59.0 °F - 39.0 °F 48% 29.89 in 10.0 mi East 5.8 mph - N/A   Scattered Clouds
1:53 PM 59.0 °F - 34.0 °F 39% 29.88 in 10.0 mi ENE 4.6 mph - N/A   Mostly Cloudy
2:15 PM 57.2 °F - 35.6 °F 44% 30.00 in 10.0 mi Calm Calm - 0.00 in Rain , Thunderstorm Light Thunderstorms and Rain
2:37 PM 55.4 °F - 41.0 °F 58% 30.03 in 10.0 mi SSW 8.1 mph - 0.00 in Rain Light Rain
2:53 PM 48.9 °F - 39.9 °F 71% 29.98 in 2.5 mi SW 15.0 mph 26.5 mph 0.08 in Rain Heavy Rain
3:07 PM 50.0 °F - 41.0 °F 71% 30.06 in 4.0 mi SSW 10.4 mph - 0.05 in Rain Rain
3:53 PM 48.9 °F - 43.0 °F 80% 29.99 in 10.0 mi West 13.8 mph - 0.09 in Rain Light Rain
4:53 PM 51.1 °F - 42.1 °F 71% 29.97 in 10.0 mi WNW 5.8 mph - 0.00 in   Mostly Cloudy
5:53 PM 52.0 °F - 41.0 °F 66% 29.97 in 10.0 mi ESE 4.6 mph - N/A   Overcast
6:53 PM 52.0 °F - 42.1 °F 69% 29.97 in 10.0 mi SSE 4.6 mph - N/A   Overcast
7:53 PM 48.0 °F - 44.1 °F 86% 29.98 in 10.0 mi Calm Calm - 0.02 in   Overcast
8:53 PM 46.9 °F - 44.1 °F 90% 29.98 in 10.0 mi Calm Calm - N/A   Mostly Cloudy
9:53 PM 46.0 °F - 41.0 °F 83% 29.99 in 10.0 mi Calm Calm - N/A   Clear
10:53 PM 45.0 °F 43.5 °F 42.1 °F 90% 29.97 in 10.0 mi WNW 3.5 mph - N/A   Partly Cloudy
11:53 PM 45.0 °F 42.6 °F 41.0 °F 86% 29.95 in 10.0 mi SW 4.6 mph - N/A   Clear